This demonstration page uses our WeatherBlox Daily Observations layout. Learn more.

Left ArrowRight Arrow

34.74481, -87.66753

Hourly Observations for May 4, 2017

Temp ( °F °C ) Dew Point ( °F °C ) Humidity (%) Winds ( mph kmh ) Pressure ( in mb ) Visibility ( mi km ) Precip ( " mm )
12:53 am 00:53 Cloudy 63 17.2 56 13.3 78 78 SSE 16 26 29.78 1008 10 16 0.01 0.25
1:29 am 01:29 Cloudy with Light Rain 62 16.7 58 14.4 86 86 SE 14 22 29.77 1008 10 16 0.01 0.25
1:53 am 01:53 Cloudy with Light Rain 62 16.7 58 14.4 86 86 ESE 20 31 29.66 1004 9 14 0.02 0.51
2:06 am 02:06 Cloudy with Light Rain 63 17.2 59 15 87 87 SE 14 22 29.74 1007 10 16 0.00 0.03
2:14 am 02:14 Cloudy with Light Rain 63 17.2 59 15 87 87 SE 15 24 29.71 1006 10 16 0.01 0.25
2:26 am 02:26 Cloudy with Light Rain 63 17.2 59 15 87 87 SE 16 26 29.71 1006 10 16 0.01 0.25
2:53 am 02:53 Cloudy 63 17.2 59 15 87 87 SSE 14 22 29.67 1005 10 16 0.01 0.25
3:53 am 03:53 Cloudy 64 17.8 58 14.4 81 81 S 7 11 29.69 1006 10 16 0.00 0.00
4:53 am 04:53 Cloudy 64 17.8 59 15 84 84 S 5 7 29.67 1005 10 16 0.00 0.00
5:53 am 05:53 Cloudy 64 17.8 59 15 84 84 S 3 6 29.68 1005 10 16 0.00 0.00
6:53 am 06:53 Cloudy with Light Rain 64 17.8 59 15 84 84 S 7 11 29.69 1005 5 8 0.01 0.25
7:53 am 07:53 Cloudy 64 17.8 59 15 84 84 S 10 17 29.67 1005 10 16 0.01 0.25
8:53 am 08:53 Cloudy 65 18.3 59 15 81 81 S 13 20 29.65 1004 10 16 0.01 0.25
9:53 am 09:53 Cloudy 65 18.3 58 14.4 78 78 S 14 22 29.65 1004 10 16 0.00 0.00
10:53 am 10:53 Cloudy 64 17.8 58 14.4 81 81 S 10 17 29.65 1004 8 13 0.00 0.00
11:53 am 11:53 Cloudy with Light Rain 63 17.2 60 15.6 90 90 S 8 13 29.62 1003 6 10 0.04 1.02
12:04 pm 12:04 Cloudy with Light Rain 63 17.2 60 15.6 90 90 SSW 9 15 29.65 1004 3 4 0.04 1.02
12:13 pm 12:13 Cloudy with Heavy Rain 62 16.7 59 15 90 90 WSW 9 15 29.65 1004 1 2 0.16 4.06
12:20 pm 12:20 Cloudy with Heavy Rain 62 16.7 59 15 90 90 WSW 8 13 29.65 1004 3 4 0.20 5.08
12:28 pm 12:28 Cloudy with Light Rain 62 16.7 59 15 90 90 WSW 10 17 29.65 1004 5 8 0.21 5.33
12:53 pm 12:53 Cloudy with Light Rain 60 15.6 57 13.9 90 90 W 13 20 29.64 1004 6 10 0.25 6.35
1:01 pm 13:01 Cloudy with Light Rain 60 15.6 57 13.9 90 90 W 12 19 29.65 1004 8 13 0.00 0.03
1:18 pm 13:18 Cloudy with Light Rain 60 15.6 57 13.9 90 90 W 12 19 29.65 1004 7 11 0.01 0.25
1:53 pm 13:53 Cloudy with Light Rain 59 15 56 13.3 90 90 W 9 15 29.63 1003 10 16 0.04 1.02
2:06 pm 14:06 Cloudy with Light Rain 59 15 55 12.8 87 87 WSW 12 19 29.65 1004 10 16 0.01 0.25
2:35 pm 14:35 Cloudy with Light Rain 59 15 56 13.3 90 90 W 12 19 29.65 1004 10 16 0.02 0.51
2:43 pm 14:43 Cloudy with Light Rain 59 15 55 12.8 87 87 W 10 17 29.62 1003 10 16 0.02 0.51
2:51 pm 14:51 Cloudy with Light Rain 59 15 55 13 88 88 W 8 13 29.62 1003 10 16 0.02 0.51
2:53 pm 14:53 Cloudy with Light Rain 59 15 55 12.8 87 87 W 10 17 29.62 1003 10 16 0.02 0.51
3:10 pm 15:10 Mostly Cloudy 59 15 54 12.2 83 83 W 9 15 29.62 1003 10 16 0.00 0.03
3:53 pm 15:53 Cloudy 58 14.4 54 12.2 87 87 W 16 26 29.62 1003 10 16 0.00 0.03
4:19 pm 16:19 Mostly Cloudy 59 15 54 12.2 83 83 W 8 13 29.62 1003 10 16 0.00 0.00
4:44 pm 16:44 Mostly Cloudy 60 15.6 54 12.2 80 80 W 12 19 29.62 1003 10 16 0.00 0.00
4:53 pm 16:53 Mostly Cloudy 59 15 52 11.1 78 78 W 12 19 29.60 1002 10 16 0.00 0.00
5:53 pm 17:53 Cloudy 56 13.3 51 10.6 84 84 WNW 14 22 29.63 1003 10 16 0.00 0.00
6:24 pm 18:24 Cloudy 55 12.8 51 10.6 87 87 W 14 22 29.62 1003 10 16 0.00 0.00
6:27 pm 18:27 Cloudy 55 12.8 51 10.6 87 87 W 14 22 29.62 1003 10 16 0.00 0.00
6:53 pm 18:53 Cloudy 55 12.8 50 10 83 83 W 18 30 29.62 1003 10 16 0.00 0.00
7:53 pm 19:53 Cloudy 54 12.2 49 9.4 83 83 W 12 19 29.63 1003 10 16 0.00 0.00
8:53 pm 20:53 Cloudy 53 11.7 48 8.9 83 83 WSW 10 17 29.63 1003 10 16 0.00 0.00
9:53 pm 21:53 Cloudy 53 11.7 48 8.9 83 83 SW 8 13 29.63 1003 10 16 0.00 0.00
10:03 pm 22:03 Cloudy 53 11.7 48 8.9 83 83 WSW 7 11 29.68 1005 10 16 0.00 0.00
10:34 pm 22:34 Cloudy 52 11.1 48 8.9 86 86 WSW 7 11 29.65 1004 10 16 0.00 0.00
10:53 pm 22:53 Cloudy with Light Rain 52 11.1 48 8.9 86 86 WSW 8 13 29.60 1002 9 14 0.00 0.03
11:24 pm 23:24 Cloudy with Light Rain 52 11.1 49 9.4 89 89 WSW 7 11 29.62 1003 6 10 0.04 1.02
11:53 pm 23:53 Cloudy with Heavy Rain 52 11.1 49 9.4 89 89 SW 7 11 29.58 1002 4 6 0.11 2.79

Powered by AerisWeather